Regional Weather Roundup
Issued by NWS Grand Forks, ND

Home | Current Version | Previous Version | Text Only | Print | Product List | Glossary Off
Versions: 1 2 3 4 5 6 7 8 9 10 11 12 13 14 15 16 17 18 19 20 21 22 23 24 25 26 27 28 29 30 31 32 33 34 35 36 37 38 39 40 41 42 43 44 45 46 47 48 49 50

000
ASUS43 KFGF 041531
RWRFGF
PRAIRIE TO PINES  WEATHER ROUNDUP
NATIONAL WEATHER SERVICE EASTERN NORTH DAKOTA/GRAND FORKS ND
1000 AM CDT TUE AUG 04 2015

 **SATELLITE DATA USED TO AUGMENT SKY COVER AT AUTOMATED STATIONS**
 *****  WEATHER ACROSS EASTERN NORTH DAKOTA  *****

CITY           SKY/WX    TMP DP  RH WIND       PRES   REMARKS
GRAND FORKS    MOSUNNY   66  54  65 N6        30.03S
GRAND FRKS AFB SUNNY     65  54  68 N6        30.04R
GRAND FRKS NWS   N/A     64 N/A N/A NE1         N/A
DEVILS LAKE    SUNNY     66  52  59 SE7       30.03F
FARGO          SUNNY     68  54  60 CALM      30.02F
WAHPETON ARPT  SUNNY     72  46  40 NW5       30.03S
$$

 ***** WEATHER ACROSS CENTRAL AND WESTERN NORTH DAKOTA  *****

CITY           SKY/WX    TMP DP  RH WIND       PRES   REMARKS
BISMARCK       SUNNY     69  55  60 E7        30.00S
MINOT          SUNNY     70  49  47 E6        30.01S
JAMESTOWN      SUNNY     69  56  62 E6        30.02S
MINOT AFB      SUNNY     71  53  53 SE6       30.01R
GARRISON         N/A     68  58  70 SE9       30.00S
WILLISTON      SUNNY     75  48  38 SE10      29.97S
DICKINSON      SUNNY     70  55  59 SE10      29.98S
HETTINGER      MOSUNNY   69  56  62 SE9       30.00R
$$

 *****  OTHER AIRPORT OBSERVATIONS IN OUR AREA  *****

CITY           SKY/WX    TMP DP  RH WIND       PRES   REMARKS
WALHALLA       FAIR      64  57  77 MISG      30.06R
GRAFTON AIRPOR FAIR      66  55  68 N8        30.05S
VALLEY CITY AR FAIR      70  54  56 E7        30.03S
CANDO          FAIR      66  55  68 SE8       30.05S
CAVALIER APRT  FAIR      64  54  68 NE8       30.05R
GWINNER        FAIR      73  54  49 CALM      30.03S
ROLLA          FAIR      64  54  68 SE6       30.06S
 ***** THE ABOVE OBSERVATIONS ARE NON NWS ARE NOT QUALITY
       CONTROLLED AND MAY MIS-REPORT RAIN FOR SNOW...
$$

  *****  WEATHER ACROSS NORTHERN MINNESOTA  *****

CITY           SKY/WX    TMP DP  RH WIND       PRES   REMARKS
FLAG ISLAND    PTSUNNY   57  48  72 N7        30.02R
WARROAD        PTSUNNY   63  54  72 NE6       30.04R
ROSEAU         PTSUNNY   63  54  72 NW3       30.03S
HALLOCK        SUNNY     64  54  68 N9        30.03S
THF RVR FALLS  SUNNY     64  52  63 NW6       30.03S
BAUDETTE       PTSUNNY   61  51  70 N5        30.01R
WASKISH        PTSUNNY   64  55  72 NW7       30.01S
CROOKSTON      SUNNY     66  55  68 N3        30.03S
STEPHEN NDAWN    N/A     66  55  68 NE8         N/A
GREENBUSH NDAW   N/A     64  52  63 N8          N/A
$$
  *****  WEATHER ACROSS CENTRAL AND WEST MINNESOTA  *****

CITY           SKY/WX    TMP DP  RH WIND       PRES   REMARKS
FOSSTON        SUNNY     66  52  59 CALM      30.03S
BEMIDJI        SUNNY     66  53  61 NW9       30.01S
PARK RAPIDS    SUNNY     68  51  54 CALM      30.02R
ELBOW LAKE     FAIR      70  53  53 W6        30.03F
WADENA         SUNNY     72  52  49 W6        30.01F
DETROIT LAKES  SUNNY     68  50  52 N5        30.04S
MOORHEAD       SUNNY     66  55  68 NE3       30.03S
FERGUS FALLS   SUNNY     72  52  49 NW7       30.02S
MORRIS MN      SUNNY     73  55  53 W6        30.02F
STAPLES        SUNNY     72  52  49 W9        30.02S
$$
  *****  WEATHER ELSEWHERE ACROSS MINNESOTA  *****

CITY           SKY/WX    TMP DP  RH WIND       PRES   REMARKS
DULUTH         MOSUNNY   67  51  56 NW10      29.98R
INTRNTL FALLS  CLOUDY    59  51  75 N10       30.01R
ELY            CLOUDY    57  52  82 CALM      29.98R
CLOQUET        SUNNY     68  50  52 W9        29.99R
WHEATON        SUNNY     72  54  53 CALM      30.03F
BRAINERD       SUNNY     68  51  54 W8        30.02S
HIBBING        CLOUDY    65  52  62 NW12      29.99R
ALEXANDRIA     SUNNY     72  52  49 W12       30.05S
SAINT CLOUD    SUNNY     72  52  49 W8        30.01F
MINNEAPOLIS    MOSUNNY   73  54  51 W8        30.01F
$$

  *****  WEATHER ACROSS SOUTH DAKOTA  *****

CITY           SKY/WX    TMP DP  RH WIND       PRES   REMARKS
SIOUX FALLS    CLOUDY    70  60  70 E6        30.02F
BROOKINGS      CLOUDY    66  54  63 SE9       30.05F
WATERTOWN      PTSUNNY   70  53  54 S8        30.03F
HURON          CLOUDY    67  61  81 SE8       29.97F
SISSETON         N/A     75  52  44 W8        30.01S
ABERDEEN       PTSUNNY   71  57  61 SE9       30.00F
MITCHELL       CLOUDY    70  65  84 E8        29.97F
PIERRE         PTSUNNY   69  62  78 E5        29.95S
MOBRIDGE       MOSUNNY   73  61  65 SE5       29.97R
RAPID CITY     CLOUDY    68  62  81 SE7       29.98S
$$

  *****  SOME WEATHER IN NEARBY STATES *****

CITY           SKY/WX    TMP DP  RH WIND       PRES   REMARKS
GLASGOW MT     MOSUNNY   72  50  45 E17       29.89R
GREAT FALLS MT CLOUDY    76  47  35 SE7       29.92S
CHEYENNE WY    CLOUDY    67  48  50 CALM      30.14R
SCOTTSBLUFF NE LGT RAIN  67  57  70 NW5       30.00F
OMAHA NE       CLOUDY    68  65  90 S9        30.05R
DES MOINES IA  CLOUDY    73  61  65 CALM      30.04R
DAVENPORT IA   PTSUNNY   74  62  66 W5        30.02R
CHICAGO IL     PTSUNNY   76  54  46 W10       29.97S
EAU CLAIRE WI  SUNNY     70  55  59 W12       30.00S
LA CROSSE WI   SUNNY     73  54  51 NW3       30.00F
$$

  *****  SOME NATIONAL WEATHER *****

CITY           SKY/WX    TMP DP  RH WIND       PRES   REMARKS
LA GUARDIA NY  SUNNY     82  65  56 SW14G20   29.85R
RALEIGH NC     MOSUNNY   86  72  62 SW10      30.03R HX  92
ATLANTA GA     PTSUNNY   88  67  49 VRB3      30.03S HX  91
NEW ORLEANS LA PTSUNNY   83  73  72 S12       30.00R
OKLAHOMA CITY  CLOUDY    71  70  96 SE17      29.98F
ALBUQUERQUE NM MOSUNNY   74  47  38 CALM      30.23R
SALT LAKE CITY MOSUNNY   66  55  67 SE8       30.12S
LOS ANGELES CA MOSUNNY   71  63  75 S5        29.92R
BOISE ID       MOSUNNY   72  52  49 SE3       30.01R
SEATTLE WA     CLOUDY    59  54  83 SW3       30.02S
$$

*** WEATHER ACROSS MANITOBA...SASKATCHEWAN AND ONTARIO ***
                ***ONTARIO***

CITY           SKY/WX    TMP DP  RH WIND       PRES   REMARKS
GERALDTON      CLOUDY    54  50  87 NW9       29.88R
THUNDER BAY    PTSUNNY   59  50  72 NW14      29.93S
SIOUX LOOKOUT  CLOUDY    55  50  82 N7        30.00R
TORONTO        PTSUNNY   73  55  53 W8        29.88S
BIG TROUT LK   CLOUDY    55  50  82 NW5       29.96S
PICKLE LAKE    PTSUNNY   55  48  76 N7        29.96R
DRYDEN         CLOUDY    54  48  82 N6        30.01R
KENORA         PTSUNNY   57  48  72 N6        30.03R
$$
                *** MANITOBA***

CITY           SKY/WX    TMP DP  RH WIND       PRES   REMARKS
BRANDON        MOSUNNY   64  54  68 E9        30.06R
DAUPHIN        SUNNY     63  55  77 SE6       30.04F
ISLAND LAKE    CLOUDY    55  52  88 W9        30.02S
PILOT MOUND      N/A     64  54  68 E6          N/A
THE PAS        MOSUNNY   63  52  67 N6        30.05R
THOMPSON       CLOUDY    55  50  82 N7        30.04S
WINNIPEG       MOSUNNY   63  54  72 N8        30.05R
LYNN LAKE      CLOUDY    59  52  77 VRB2      30.06S
CHURCHILL      CLOUDY    48  45  87 NE9       30.05R
GILLAM         CLOUDY    52  50  93 NE3       30.01R
$$
                ***SASKATCHEWAN***

CITY           SKY/WX    TMP DP  RH WIND       PRES   REMARKS
ESTEVAN        PTSUNNY   70  52  52 SE12      30.01S
KINDERSLEY     CLOUDY    66  52  59 SE14G23   29.81F
LLOYDMINSTER   CLOUDY    59  57  94 E9        29.88R
PRINCE ALBERT  CLOUDY    61  57  88 E7        29.99F
REGINA         PTSUNNY   68  52  56 SE16G22   29.97F
YORKTON        SUNNY     64  55  72 SE7       30.02F
N. BATTLEFORD  SUNNY     64  54  68 E16G22    29.91F
LA RONGE       PTSUNNY   68  50  52 E8        30.02
SASKATOON      CLOUDY    66  54  63 E12       29.93F
SWIFT CURRENT  SUNNY     72  54  53 SE17G25   29.85F
$$
NOTE: THESE ARE AUTOMATED STATIONS WITH LIMITED QUALITY CONTROL
      "FAIR" INDICATES FEW OR NO CLOUDS BELOW 12,000 FEET WITH NO
      SIGNIFICANT WEATHER AND/OR OBSTRUCTIONS TO VISIBILITY.
      SKY/WX - SKY CONDITION AND SIGNIFICANT WEATHER.
      TMP - AIR TEMPERATURE.    DP   - DEWPOINT TEMPERATURE.
      RH  - RELATIVE HUMIDITY.  PRES - PRESSURE.
      HX  - HEAT INDEX.         WCI  - WIND CHILL INDEX.
$


USA.gov is the U.S. government's official web portal to all federal, state and local government web resources and services.